TIME,DELAY(SENSOR),PRES,T(CTD),SAL,OXYGEN,RAWTEMP,T(OPTODE),TCPHASE,FLUOR,BETA(BETA700),BETA(BETA412),BETA(BETA440),CDOM,C(CSC),ED(ED411.90),ED(ED443.80),ED(ED489.40),ED(ED554.70),LU(LU412.20),LU(LU443.80),LU(LU489.40),LU(LU555.00),COMP,TILTX,TILTX(TILTY),CHECK
1339601053,5803,494.3599853515625000,15.8417997360229500,36.1495018005371100,211.6289978027343800,226.9080963134765600,15.8375196456909180,32.9321403503418000,51,102,99,80,70,15153,2146954806,2147516022,2147274331,2147476534,2147085238,2146945974,2147668489,2147122624,1567,-2,8,8221
1339601170,5801,483.5499877929687500,16.0436992645263670,36.1876983642578100,214.0142059326172000,220.2239990234375000,16.0389003753662100,32.7058486938476560,51,102,99,81,71,15153,2146952996,2147513408,2147270902,2147478811,2147087296,2146950912,2147664649,2147121773,1306,-2,8,30132
1339601297,5808,471.8500061035156000,16.2672996520996100,36.2295989990234400,217.4902954101562500,212.8764953613281200,16.2602901458740230,32.4137001037597660,51,102,98,81,69,15150,2146953188,2147516498,2147267757,2147477595,2147083693,2146950070,2147663497,2147123849,1859,-2,8,32017
1339601414,5806,461.6400146484375000,16.3992996215820300,36.2584991455078100,221.2136993408203000,208.2882995605468800,16.3985500335693360,32.1522293090820300,51,100,100,80,70,15152,2146954633,2147515035,2147270116,2147472950,2147082048,2146946669,2147664274,2147120749,1508,-2,8,56410
1339601541,5806,450.8200073242187500,16.5536994934082030,36.2877998352050800,222.1567993164062500,203.1875000000000000,16.5522708892822270,32.0317993164062500,51,100,99,81,69,15153,2146952749,2147513718,2147267885,2147472310,2147083428,2146949330,2147666934,2147123602,1612,-2,8,5365
1339601680,5808,439.3699951171875000,16.7084999084472660,36.3157005310058600,221.5646057128906200,198.2971954345703000,16.6996593475341800,31.9946899414062500,51,101,98,80,70,15154,2146957942,2147512530,2147269184,2147473773,2147081426,2146960146,2147662518,2147124352,1825,-2,8,642
1339601809,5802,428.9599914550781000,16.8379001617431640,36.3395004272460940,223.0225982666015600,193.8773956298828000,16.8328895568847660,31.8574600219726560,50,100,100,79,69,15154,2146955876,2147514349,2147269824,2147468790,2147082642,2146955666,2147662747,2147126628,2141,-2,8,34941
1339601948,5806,417.6700134277344000,16.9839992523193360,36.3658981323242200,223.8459014892578000,188.8459014892578000,16.9845790863037100,31.7455406188964840,51,101,100,80,69,15153,2146951030,2147515483,2147268425,2147470390,2147083081,2146953014,2147658733,2147123437,3415,-2,8,37951
1339602089,5808,406.2500000000000000,17.1186008453369140,36.3885002136230500,223.6184997558593800,184.6226959228515600,17.1119194030761720,31.6993598937988280,50,101,98,80,68,15151,2146952045,2147517970,2147269696,2147471241,2147083355,2146955026,2147660352,2147121499,3552,-2,8,7929
1339602216,5805,395.5599975585937500,17.2392997741699220,36.4123001098632800,225.2888031005859400,180.6217041015625000,17.2325801849365230,31.5587692260742200,51,100,99,82,69,15153,2146953152,2147511844,2147269476,2147470976,2147084114,2146950253,2147662418,2147119286,185,-2,8,33269
1339602345,5804,384.5000000000000000,17.3118000030517580,36.4253005981445300,225.6844940185547000,178.1499938964843800,17.3071308135986330,31.5047492980957030,51,102,99,81,69,15152,2146951606,2147512886,2147267044,2147464411,2147082651,2146957476,2147662802,2147125229,552,-2,8,43984
1339602472,5807,373.4500122070312500,17.4444999694824220,36.4510002136230500,228.1262969970703000,173.6551055908203000,17.4427299499511720,31.3203296661376950,51,101,98,80,68,15152,2146948114,2147514706,2147271579,2147465554,2147086308,2146957385,2147659977,2147122532,538,-2,8,32102
1339602599,5806,362.4800109863281000,17.5753002166748050,36.4770011901855500,229.9716033935547000,169.2572937011718800,17.5754203796386720,31.1684207916259770,51,102,99,81,69,15153,2146953956,2147516525,2147274880,2147466066,2147085019,2146957513,2147662226,2147120411,724,-2,8,40879
1339602728,5808,351.5100097656250000,17.6798992156982420,36.4985008239746100,232.8567962646484400,166.0466003417968800,17.6723098754882800,30.9829101562500000,50,103,99,81,68,15154,2146953307,2147516123,2147273746,2147462912,2147089764,2146956489,2147663140,2147117056,603,-2,8,55252
1339602867,5805,340.0199890136719000,17.7847995758056640,36.5194015502929700,235.3704986572265600,162.3256072998047000,17.7846298217773440,30.8106803894042970,50,100,98,80,68,15152,2146947968,2147518784,2147273526,2147465856,2147086336,2146956544,2147662208,2147118281,772,-2,8,24652
1339602996,5805,329.8299865722656000,17.8423004150390620,36.5303001403808600,236.7566986083984400,160.4682006835937500,17.8407001495361330,30.7193794250488280,51,101,99,81,67,15153,2146953334,2147518756,2147281819,2147465389,2147085970,2146963986,2147666797,2147117622,1352,-2,8,18584
1339603147,5804,318.5199890136719000,17.9249000549316400,36.5470008850097660,238.8690032958984400,157.7816009521484400,17.9218196868896500,30.5828895568847660,50,101,99,83,67,15148,2146952914,2147517403,2147278646,2147463478,2147085357,2146957110,2147659721,2147118025,1432,-2,8,38625
1339603295,5808,307.1499938964844000,17.9706993103027340,36.5528984069824200,238.8032989501953000,156.2653045654297000,17.9675998687744140,30.5656394958496100,51,102,100,81,68,15148,2146952612,2147524452,2147296932,2147463186,2147084955,2146963328,2147672548,2147123629,1894,-2,8,64945
1339603409,5804,296.3999938964844000,18.0132007598876950,36.5583992004394500,238.3603057861328000,154.8242034912109400,18.0111198425292970,30.5676708221435550,51,101,98,82,67,15148,2146951835,2147523940,2147295332,2147463232,2147085641,2146966363,2147670016,2147120109,2457,-2,8,12808
1339603524,5803,285.0599975585937500,18.0702991485595700,36.5633010864257800,237.1513977050781200,152.9533996582031200,18.0676307678222660,30.6000709533691400,50,102,100,81,67,15146,2146953773,2147529234,2147310299,2147461961,2147084233,2146964123,2147678601,2147122121,2554,-2,8,4751
1339603641,5805,273.2500000000000000,18.1301994323730470,36.5714988708496100,236.6802062988281200,150.9741058349609400,18.1274108886718750,30.5960292816162100,50,103,99,81,67,15146,2146953481,2147536146,2147334308,2147462893,2147085092,2146973092,2147696822,2147123456,2512,-2,8,44037
1339603756,5807,261.3299865722656000,18.1798992156982420,36.5750999450683600,235.5760040283203000,149.2716979980468800,18.1788406372070300,30.6262493133544920,50,101,100,82,67,15145,2146953005,2147547757,2147367158,2147462080,2147086381,2146983808,2147713526,2147115739,2731,-2,8,3951
1339603871,5804,249.4499969482422000,18.2455005645751950,36.5816001892089840,234.5084075927734400,147.2248992919922000,18.2406806945800780,30.6505203247070300,50,102,99,82,67,15145,2146957083,2147585124,2147466130,2147459465,2147087232,2147006189,2147768356,2147129060,3015,-2,8,63508
1339603990,5804,238.5399932861328000,18.3229999542236330,36.5872001647949200,232.8292999267578000,144.6672973632812500,18.3179702758789060,30.6976509094238280,50,103,99,83,68,15143,2146959195,2147607798,2147519204,2147460425,2147088969,2147024804,2147799798,2147134299,2857,-2,8,28471
1339604129,5806,227.7200012207031200,18.3770008087158200,36.5909996032714840,230.6038970947265600,142.8208007812500000,18.3737792968750000,30.7817401885986330,50,104,98,81,67,15141,2146960731,2147647890,2147607616,2147459245,2147087926,2147052553,2147848082,2147133961,3074,-2,8,19012
1339604270,5805,216.5899963378906200,18.4624996185302730,36.5948982238769500,228.5924987792968800,139.9855041503906200,18.4594802856445300,30.8428306579589840,51,103,100,83,69,15139,2146965202,2147700928,2147736265,2147460864,2147095478,2147091062,2147924480,2147139876,335,-2,8,12473
1339604409,5806,206.1399993896484400,18.6543998718261720,36.6030006408691400,225.7886962890625000,133.3748016357422000,18.6593894958496100,30.8947906494140620,51,104,101,82,67,15140,2146970212,2147721755,2147754770,2147462628,2147093193,2147102299,2147921462,2147138870,653,-2,8,39380
1339604558,5804,196.8800048828125000,18.9694004058837900,36.5973014831543000,229.0675964355468800,123.8531036376953100,18.9475002288818360,30.6049098968505860,51,104,99,82,68,15138,2146982244,2147808649,2147940864,2147457024,2147100342,2147161206,2148036013,2147149540,3112,-2,8,38850
1339604637,5806,193.8500061035156200,19.0720996856689450,36.5891990661621100,232.1549987792968800,120.3460998535156200,19.0536804199218750,30.4076595306396500,51,105,100,83,67,15138,2146985042,2147824320,2147962578,2147460809,2147102226,2147171236,2148043510,2147148662,3489,-2,8,43281
1339604764,5805,190.2700042724609400,19.1312007904052730,36.5820999145507800,240.6795959472656200,117.8786010742187500,19.1284008026123050,29.9712200164794920,51,102,99,82,67,15139,2146992822,2147877540,2148082203,2147462080,2147105097,2147200548,2148102372,2147150253,2582,-2,8,10760
1339604911,5805,185.9199981689453000,19.2031002044677730,36.5755004882812500,250.5850982666015600,115.6171035766601600,19.1969108581542970,29.4934101104736330,51,105,99,82,65,15138,2146989037,2147792996,2147868781,2147458395,2147097993,2147161152,2147996233,2147144576,3257,-2,8,2219
1339605014,5803,181.6399993896484400,19.2152996063232420,36.5676002502441400,255.5182037353515600,115.1877975463867200,19.2099094390869140,29.2726097106933600,51,103,100,82,66,15136,2147000283,2147860525,2148019254,2147456713,2147111296,2147213266,2148081654,2147150345,618,-2,8,46607
1339605105,5806,177.6199951171875000,19.2171993255615230,36.5634002685546900,257.7508850097656000,115.1085968017578100,19.2123107910156250,29.1757907867431640,50,105,101,83,63,15136,2147010944,2147941229,2148179456,2147458011,2147118317,2147273764,2148178514,2147154962,792,-2,8,2670
1339605183,5805,173.4499969482422000,19.2162990570068360,36.5612983703613300,259.8168029785156000,115.1062011718750000,19.2123794555664060,29.0879402160644530,52,106,99,83,64,15135,2147015561,2147968109,2148223067,2147457444,2147114669,2147291072,2148205257,2147157129,794,-2,8,10006
1339605250,5803,169.0700073242187500,19.2136001586914060,36.5607986450195300,260.6852111816406000,115.1748962402343800,19.2103004455566400,29.0522003173828120,52,104,102,83,64,15135,2147049526,2148185024,2148676324,2147461814,2147136813,2147451913,2148473746,2147173531,959,-2,8,22892
1339605317,5803,164.5500030517578000,19.2138996124267580,36.5596008300781250,260.8606872558594000,115.1831970214843800,19.2100505828857420,29.0448608398437500,50,106,101,82,65,15132,2147065152,2148262912,2148823753,2147458066,2147155693,2147507254,2148557211,2147179081,978,-2,8,3500
1339605372,5805,160.6900024414062500,19.2148990631103500,36.5593986511230500,260.9728088378906000,115.1690979003906200,19.2104797363281250,29.0398597717285160,53,107,100,83,64,15134,2147079286,2148300041,2148888704,2147462171,2147166774,2147544484,2148585874,2147179053,1186,-2,9,11641
1339605427,5805,156.8300018310547000,19.2155990600585940,36.5598983764648440,261.0916137695312500,115.1374969482421900,19.2114391326904300,29.0345306396484380,53,108,100,83,64,15123,2147100160,2148386678,2149039698,2147461659,2147175853,2147607323,2148691090,2147183323,1251,-2,9,4636
1339605501,5804,151.9199981689453000,19.2164001464843750,36.5601005554199200,261.0357971191406000,115.1033020019531200,19.2124691009521500,29.0365695953369140,53,108,100,83,65,15127,2147146514,2148587081,2149427254,2147465819,2147199881,2147755090,2148906441,2147196269,1411,-2,8,51651
1339605568,5806,148.0299987792968800,19.2175006866455080,36.5588989257812500,261.0172119140625000,115.0836029052734400,19.2130699157714840,29.0369091033935550,55,111,102,84,63,15121,2147190061,2148782372,2149787629,2147465408,2147229494,2147905764,2149142683,2147210834,1312,-2,8,369
1339605635,5805,144.2100067138672000,19.2194004058837900,36.5595016479492200,260.7604980468750000,115.0133972167968800,19.2152004241943360,29.0469493865966800,58,113,102,84,64,15121,2147312237,2149325622,2150880740,2147476068,2147306276,2148315017,2149781357,2147249572,1407,-2,8,347
1339605702,5802,140.4400024414062500,19.2222003936767580,36.5609016418457000,260.7088928222656000,114.8750000000000000,19.2193908691406250,29.0472602844238280,59,112,102,84,63,15118,2147391076,2149597952,2151373549,2147483501,2147352429,2148506678,2150055579,2147264722,1367,-2,8,35776
1339605781,5804,136.0899963378906200,19.2283000946044920,36.5615997314453100,260.5068969726562500,114.6988983154296900,19.2247200012207030,29.0534706115722660,65,113,101,84,64,15111,2147461028,2149789906,2151659264,2147487707,2147391771,2148631817,2150203949,2147274249,1468,-2,8,25254
1339605850,5805,132.3399963378906200,19.2381000518798830,36.5638999938964840,260.3807983398437500,114.3619003295898400,19.2349300384521500,29.0545005798339840,69,115,103,86,64,15107,2147571181,2150150838,2152299337,2147498066,2147458889,2148875264,2150559716,2147297398,1511,-2,8,58363
1339605929,5804,128.1199951171875000,19.2609004974365230,36.5698013305664060,260.1138000488281000,113.6722030639648400,19.2558307647705080,29.0568504333496100,69,112,101,84,64,15103,2147712905,2150554715,2152959003,2147510921,2147538724,2149165174,2150961682,2147322880,1556,-2,8,43094
1339605996,5802,124.6399993896484400,19.2896995544433600,36.5764999389648440,259.9927062988281000,112.7789993286132800,19.2828998565673830,29.0507106781005860,72,117,102,85,64,15102,2147838884,2150868790,2153452598,2147521033,2147606811,2149379785,2151221202,2147343680,1642,-2,9,35338
1339606075,5806,120.5299987792968800,19.2744007110595700,36.5696983337402340,260.0292053222656000,113.1605987548828100,19.2713298797607420,29.0538806915283200,104,125,104,86,65,15061,2148045705,2151438006,2154357485,2147542144,2147714889,2149694966,2151636443,2147376740,1797,-2,8,11406
1339606156,5802,116.3000030517578100,19.3012008666992200,36.5754013061523440,260.3059082031250000,112.3793029785156200,19.2950096130371100,29.0321998596191400,105,127,104,87,65,15055,2148321225,2152157696,2155509376,2147569773,2147850294,2150046500,2152110838,2147415542,1900,-2,8,57899
1339606235,5800,112.1500015258789000,19.3353996276855470,36.5838012695312500,260.5271911621094000,111.1206970214843800,19.3331508636474600,29.0068702697753900,105,128,104,85,64,15060,2148671634,2153080603,2156950848,2147608530,2148023369,2150530733,2152784923,2147468772,2002,-2,8,3831
1339606302,5806,108.6999969482421900,19.3626003265380860,36.5908012390136700,261.3800964355469000,110.3644027709961000,19.3560695648193360,28.9611701965332030,94,122,104,87,63,15073,2148994048,2153848585,2158169161,2147648301,2148206902,2151002176,2153398016,2147514633,1751,-2,8,59398
1339606381,5807,104.6200027465820300,19.3747997283935550,36.5941009521484400,262.0649108886719000,109.8972015380859400,19.3702297210693360,28.9267005920410160,98,121,104,88,64,15071,2149431908,2154832676,2159680283,2147710866,2148458038,2151628827,2154162441,2147575524,1777,-2,8,39994
1339606462,5804,100.4899978637695300,19.3806991577148440,36.5934982299804700,262.2614135742187500,109.6899032592773400,19.3765201568603500,28.9157295227050780,116,130,103,85,64,15049,2150037092,2156201828,2161730779,2147799049,2148797220,2152401490,2155144091,2147661787,1917,-2,8,13019
1339606517,5807,97.8000030517578100,19.3845996856689450,36.5927009582519500,262.5401000976562500,109.5501022338867200,19.3807506561279300,28.9024391174316400,132,135,105,88,64,15028,2150580187,2157466230,2163600457,2147877312,2149053394,2152997284,2155914349,2147728822,1927,-2,8,18206
1339606572,5806,95.1500015258789000,19.3866996765136720,36.5920982360839840,262.8410949707031000,109.4757995605468800,19.3830108642578120,28.8889694213867200,150,136,105,87,64,15011,2151221705,2158915574,2165602587,2147963748,2149331108,2153564361,2156610934,2147807387,2011,-2,9,51691
1339606627,5805,92.5999984741211000,19.3808002471923830,36.5881996154785160,263.1759948730469000,109.6503982543945300,19.3777103424072270,28.8771705627441400,161,142,105,86,62,14983,2151852790,2160233828,2167140726,2148046738,2149554331,2153899894,2156984484,2147864713,1933,-2,8,2197
1339606682,5809,90.0999984741211000,19.3659992218017580,36.5797004699707000,263.1972961425781000,110.0759963989257800,19.3648109436035160,28.8817291259765620,185,141,107,88,64,14947,2153108169,2163170093,2171178267,2148203053,2150042185,2154958281,2158434697,2148014272,1769,-2,8,12077
1339606737,5804,87.6500015258789000,19.3698005676269530,36.5800018310546900,263.4862976074219000,109.9811019897461000,19.3676891326904300,28.8684902191162100,191,144,106,86,64,14912,2151910957,2159539026,2164466706,2147973010,2149396251,2152909805,2155439872,2147790390,1555,-2,8,29643
1339606794,5804,85.0899963378906200,19.3724994659423830,36.5744018554687500,264.9085998535156000,109.9664001464843800,19.3681392669677730,28.8094596862792970,176,141,107,86,65,14932,2153908150,2164109824,2170678857,2148240667,2150150473,2154568960,2157568429,2148023634,1614,-2,8,44988
1339606849,5805,82.6999969482421900,19.3962001800537100,36.5724983215332000,267.2380065917969000,108.8992004394531200,19.4004802703857420,28.7001705169677730,142,133,107,86,66,14951,2157774390,2172914075,2182861430,2148790208,2151697828,2158197686,2162325248,2148516132,1611,-2,8,24467
1339606904,5805,80.4300003051757800,19.4666004180908200,36.5819015502929700,269.0473937988281000,107.0747985839843800,19.4557895660400400,28.6036090850830080,125,130,106,85,65,14949,2159686802,2176404498,2186675611,2149037952,2152460132,2159659556,2163884434,2148704365,1255,-2,8,51597
1339606959,5806,78.2799987792968800,19.4871006011962900,36.5833015441894500,270.9531860351562500,106.1154022216796900,19.4848899841308600,28.5145301818847660,106,131,107,87,67,14958,2161740388,2180036425,2190479140,2149307702,2153326957,2161335305,2165609545,2148901769,966,-2,8,5094
1339607014,5804,76.1500015258789000,19.5370998382568360,36.5873985290527340,272.5364990234375000,104.5428009033203100,19.5325698852539060,28.4311103820800780,99,129,105,87,67,14963,2163899693,2183681142,2194192667,2149594624,2154376713,2163285376,2167513828,2149122889,1064,-2,8,9052
1339607069,5806,74.1600036621093800,19.6278991699218750,36.5898017883300800,274.3742980957031000,101.6813964843750000,19.6193599700927730,28.3222999572753900,89,133,106,86,63,14966,2166489417,2188005394,2198707684,2149954011,2155643830,2165610093,2169734134,2149358006,970,-2,8,24501
1339607144,5806,71.2300033569336000,19.7070007324218750,36.5909996032714840,277.6051940917969000,98.9788589477539000,19.7013607025146500,28.1615905761718750,87,140,108,89,64,14930,2171191067,2195318345,2205923867,2150648438,2158154230,2170043337,2173836388,2149799131,938,-2,8,41451
1339607199,5804,68.6299972534179700,19.7451000213623050,36.5926017761230500,279.6138916015625000,97.7600326538086000,19.7383499145507800,28.0684394836425780,86,141,108,89,62,14920,2175534921,2201954916,2212339136,2151345974,2160651337,2174198134,2177630674,2150215113,1192,-2,8,51914
1339607254,5805,66.0199966430664000,19.7661991119384770,36.5713996887207000,280.8229064941406000,96.8230667114257800,19.7667903900146500,28.0100994110107420,85,162,116,94,63,14864,2181858203,2210987602,2220997376,2152242240,2163882029,2179688128,2182665892,2150803922,1262,-2,9,888
1339607309,5805,63.5299987792968750,19.8959007263183600,36.5695991516113300,282.2532043457031000,92.3077392578125000,19.9038696289062500,27.8990802764892580,83,160,116,95,63,14848,2181182720,2206852123,2213530587,2152002011,2163957321,2178745197,2180537069,2150614875,1443,-2,8,14871
1339607364,5806,61.2200012207031250,20.0599994659423830,36.5716018676757800,283.1072082519531000,87.4922409057617200,20.0501499176025400,27.8065605163574220,81,158,116,96,65,14835,2195591908,2229547008,2238122669,2154415030,2171560566,2191953536,2193826861,2152139520,1311,-2,8,19307
1339607419,5802,59.2299995422363300,20.1707000732421880,36.5722007751464840,283.6731872558594000,83.9471969604492200,20.1578807830810550,27.7410907745361330,80,164,115,96,64,14841,2201893851,2237280850,2244702619,2155372379,2175439579,2197756160,2198514596,2152722441,752,-2,9,58694
1339607476,5808,57.3600006103515600,20.2140998840332030,36.5727005004882800,284.2486877441406000,82.4522171020507800,20.2033290863037100,27.7008399963378900,78,165,119,95,63,14829,2209082852,2246402953,2253033353,2156555730,2179638756,2203694930,2203132269,2153307840,452,-2,8,51189
1339607531,5804,55.7500000000000000,20.3327999114990230,36.5714988708496100,283.8353881835937500,78.5014038085937500,20.3234691619873050,27.6675300598144530,76,161,116,93,62,14826,2216101760,2254941321,2260401005,2157763803,2184117686,2210000841,2208414354,2153965833,174,-2,8,47569
1339607672,5805,53.1199989318847660,20.4671993255615230,36.5717010498046900,283.6675109863281000,74.0094680786132800,20.4601497650146500,27.6182994842529300,73,153,117,92,60,14822,2228412068,2269238418,2272162441,2159740443,2192455076,2221496347,2217251638,2155141266,2407,-2,9,60826
1339607706,5804,52.5299987792968750,20.6009998321533200,36.5694007873535160,283.0621032714844000,70.8484725952148400,20.5563697814941400,27.6020507812500000,71,155,114,94,64,14840,2230957750,2272249069,2274980352,2160401115,2194527954,2224141019,2219238784,2155454473,2272,-2,9,26860
1339607810,5804,50.5800018310546900,20.7047996520996100,36.5773010253906250,281.7152099609375000,65.8527069091796900,20.7085304260253900,27.5914497375488280,71,150,114,91,58,14841,2241821458,2284205284,2285181056,2162815542,2202703250,2234397110,2227065097,2156645814,1936,-3,8,30133
1339607867,5806,48.5499992370605500,20.8073997497558600,36.5853996276855500,280.4122009277344000,62.0239410400390600,20.8252105712890620,27.5938606262207030,68,144,111,92,59,14859,2252038902,2295438070,2295310509,2165073261,2211182857,2244901888,2234538697,2157787657,1377,-2,9,9873
1339607924,5805,46.5400009155273440,20.9034004211425780,36.5730018615722660,279.4094848632812500,58.9866714477539060,20.9178199768066400,27.5946998596191400,67,141,112,91,62,14873,2262475803,2307342921,2306077952,2168015524,2219578523,2254794861,2241590226,2158912502,1779,-2,8,49477
1339607981,5805,44.7400016784668000,21.0772991180419920,36.5849990844726560,278.0325012207031000,54.1995887756347660,21.0638504028320300,27.5883598327636720,64,139,112,89,63,14879,2272953078,2319244333,2317256969,2171068992,2228947556,2266092553,2249850779,2160260726,1979,-2,9,39052
1339608062,5804,42.9000015258789060,21.1861991882324220,36.5746002197265600,276.8232116699219000,50.3670806884765600,21.1808395385742200,27.5879001617431640,62,137,111,88,60,14845,2279733156,2325473462,2322241490,2173285851,2238293110,2276789741,2256607689,2161153188,2572,-2,8,46033
1339608153,5803,40.6699981689453100,21.3020000457763670,36.5721015930175800,275.2329101562500000,46.3635482788085940,21.3031196594238280,27.6001300811767580,60,135,108,89,58,14911,2293094034,2339702537,2335925312,2178135515,2253656905,2293370294,2266440073,2162737901,2948,-2,9,55812
1339608210,5807,38.7099990844726560,21.3521003723144530,36.5657997131347660,274.9400939941406000,44.4666213989257800,21.3610801696777340,27.5880603790283200,58,134,110,89,61,14919,2303359469,2350639497,2346453257,2182785334,2267357394,2307978322,2276095844,2164467830,2623,-2,8,8035
1339608267,5806,36.7900009155273440,21.4221992492675780,36.5447998046875000,274.4201965332031000,42.3043403625488300,21.4271793365478500,27.5817298889160160,58,133,108,91,64,14925,2314758262,2362318418,2357291154,2187901961,2284399945,2326679570,2288479597,2166811346,2138,-2,9,17187
1339608336,5801,34.6100006103515600,21.4731006622314450,36.5369987487793000,274.5354919433594000,40.5755882263183600,21.4800300598144530,27.5560092926025400,57,133,110,87,57,14922,2329973339,2378191195,2372682715,2195028699,2303480813,2346754523,2301921453,2169575250,1985,-2,8,23518
1339608393,5806,32.8400001525878900,21.5414009094238280,36.5364990234375000,274.0349121093750000,38.2283210754394500,21.5518207550048830,27.5465698242187500,58,131,110,91,61,14928,2341640969,2390170962,2384677659,2200741165,2317657782,2361096832,2310767652,2171452589,1363,-2,8,29039